Granite Falls, MN

6:47 PM CST on December 05, 2019 (GMT -0600)
Granite Falls

Weather History for KGDB - October, 2019

Change the Weather History Date:

Tuesday, October 22, 2019

  Actual Average (KMVE) Record (KMVE)
Temperature  
Mean Temperature 40 °F -  
Max Temperature 50 °F 59 °F 80 °F (1989)
Min Temperature 31 °F 35 °F 19 °F (1997)
Degree Days  
Heating Degree Days 24    
Moisture  
Dew Point 34 °F    
Average Humidity 74    
Maximum Humidity 91    
Minimum Humidity 45    
Precipitation  
Precipitation 0.00 in - - ()
Sea Level Pressure  
Sea Level Pressure 29.66 in    
Wind  
Wind Speed 25 mph (WNW)    
Max Wind Speed 33 mph    
Max Gust Speed 46 mph    
Visibility 9 miles    
Events      
Averages and records for this station are not official NWS values.
T = Trace of Precipitation, MM = Missing Value Source: NWS Daily Summary

Daily Weather History Graph

Daily Weather History Graph

Search for Another Location

Airport or City:

Astronomy

Oct. 22, 2019 Rise Set
Actual Time 7:46 AM CDT 6:26 PM CDT
Civil Twilight 7:16 AM CDT 6:55 PM CDT
Nautical Twilight 6:42 AM CDT 7:29 PM CDT
Astronomical Twilight 6:08 AM CDT 8:03 PM CDT
Moon 12:36 AM CDT (10/22) 3:55 PM CDT (10/22)
Length of Visible Light 11h 39m
Length of Day
10h 39m
Last Quarter, 37% of the Moon is Illuminated
Oct 22
Last Quarter
Oct 27
New
Nov 4
First Quarter
Nov 12
Full
Nov 19
Last Quarter

Hourly Weather History & Observations

Time (CDT) Temp. Windchill Dew Point Humidity Pressure Visibility Wind Dir Wind Speed Gust Speed Precip Events Conditions
12:15 AM 43.3 °F 32.7 °F 40.1 °F 88% 29.46 in 10.0 mi WNW 32.2 mph 40.3 mph N/A   Light Drizzle
12:16 AM 43.3 °F 32.7 °F 40.1 °F 88% 29.46 in 10.0 mi WNW 32.2 mph 40.3 mph N/A   Light Drizzle
12:35 AM 43.3 °F 33.0 °F 40.1 °F 88% 29.47 in 10.0 mi WNW 29.9 mph 38.0 mph N/A   Overcast
12:39 AM 43.3 °F 33.4 °F 40.1 °F 88% 29.47 in 10.0 mi WNW 27.6 mph 38.0 mph N/A   Overcast
1:16 AM 42.8 °F 32.3 °F 39.7 °F 89% 29.49 in 10.0 mi WNW 29.9 mph 40.3 mph N/A   Light Drizzle
1:35 AM 42.8 °F 31.8 °F 39.4 °F 88% 29.50 in 10.0 mi WNW 33.4 mph 43.7 mph N/A   Light Drizzle
1:36 AM 42.8 °F 32.5 °F 39.4 °F 88% 29.50 in 10.0 mi WNW 28.8 mph 43.7 mph N/A   Light Drizzle
1:55 AM 42.4 °F 32.4 °F 39.6 °F 90% 29.51 in 10.0 mi WNW 26.5 mph 38.0 mph N/A   Light Drizzle
1:56 AM 42.4 °F 32.8 °F 39.6 °F 90% 29.51 in 10.0 mi WNW 24.2 mph 38.0 mph N/A   Overcast
2:18 AM 42.3 °F 32.6 °F 39.2 °F 89% 29.52 in 10.0 mi WNW 24.2 mph 40.3 mph N/A   Light Drizzle
2:36 AM 42.3 °F 32.4 °F 39.2 °F 89% 29.52 in 10.0 mi WNW 25.3 mph 39.1 mph N/A   Overcast
2:55 AM 42.3 °F 31.9 °F 38.8 °F 88% 29.53 in 10.0 mi WNW 27.6 mph 46.0 mph N/A   Overcast
3:15 AM 41.9 °F 32.1 °F 39.2 °F 90% 29.53 in 10.0 mi WNW 24.2 mph 38.0 mph N/A   Overcast
3:16 AM 41.9 °F 31.9 °F 39.2 °F 90% 29.53 in 10.0 mi WNW 25.3 mph 38.0 mph N/A   Overcast
3:35 AM 41.9 °F 31.9 °F 38.8 °F 89% 29.54 in 10.0 mi WNW 25.3 mph 35.7 mph N/A   Overcast
3:39 AM 41.9 °F 31.5 °F 38.8 °F 89% 29.54 in 10.0 mi WNW 27.6 mph 35.7 mph N/A   Overcast
3:58 AM 41.9 °F 31.9 °F 39.2 °F 90% 29.54 in 10.0 mi WNW 25.3 mph 36.8 mph N/A   Overcast
4:15 AM 41.9 °F 31.9 °F 38.8 °F 89% 29.55 in 10.0 mi WNW 25.3 mph 35.7 mph N/A   Overcast
4:35 AM 41.9 °F 31.1 °F 38.5 °F 88% 29.56 in 10.0 mi WNW 29.9 mph 36.8 mph N/A   Overcast
4:36 AM 41.7 °F 30.8 °F 38.5 °F 88% 29.56 in 10.0 mi WNW 29.9 mph 36.8 mph N/A   Overcast
4:55 AM 41.4 °F 30.9 °F 37.6 °F 86% 29.56 in 10.0 mi WNW 26.5 mph 40.3 mph N/A   Overcast
5:18 AM 41.2 °F 31.9 °F 37.2 °F 86% 29.57 in 10.0 mi WNW 20.7 mph 33.4 mph N/A   Overcast
5:37 AM 41.0 °F 30.7 °F 37.4 °F 87% 29.58 in 10.0 mi West 25.3 mph 31.1 mph N/A   Overcast
5:56 AM 40.3 °F 29.3 °F 36.5 °F 86% 29.59 in 10.0 mi WNW 27.6 mph 33.4 mph N/A   Overcast
6:15 AM 40.1 °F 29.0 °F 36.1 °F 86% 29.59 in 10.0 mi WNW 27.6 mph 34.5 mph N/A   Overcast
6:16 AM 40.1 °F 29.2 °F 36.1 °F 86% 29.60 in 10.0 mi WNW 26.5 mph 34.5 mph N/A   Overcast
6:35 AM 40.1 °F 29.7 °F 36.1 °F 86% 29.61 in 10.0 mi WNW 24.2 mph 35.7 mph N/A   Overcast
6:57 AM 39.7 °F 29.2 °F 35.4 °F 85% 29.61 in 10.0 mi WNW 24.2 mph 33.4 mph N/A   Overcast
7:16 AM 39.9 °F 29.0 °F 35.6 °F 85% 29.61 in 10.0 mi West 26.5 mph 32.2 mph N/A   Overcast
7:35 AM 40.1 °F 29.2 °F 34.9 °F 82% 29.62 in 10.0 mi WNW 26.5 mph 38.0 mph N/A   Overcast
7:55 AM 40.1 °F 29.5 °F 34.7 °F 81% 29.62 in 10.0 mi WNW 25.3 mph 35.7 mph N/A   Overcast
7:56 AM 40.1 °F 29.7 °F 34.7 °F 81% 29.62 in 10.0 mi WNW 24.2 mph 35.7 mph N/A   Overcast
8:19 AM 39.4 °F 28.3 °F 34.2 °F 82% 29.63 in 10.0 mi WNW 26.5 mph 39.1 mph N/A   Overcast
8:36 AM 39.2 °F 28.7 °F 33.8 °F 81% 29.63 in 10.0 mi WNW 23.0 mph 35.7 mph N/A   Overcast
8:56 AM 39.2 °F 28.3 °F 32.9 °F 78% 29.64 in 10.0 mi WNW 25.3 mph 33.4 mph N/A   Overcast
9:15 AM 40.1 °F 29.2 °F 33.1 °F 76% 29.65 in 10.0 mi WNW 26.5 mph 32.2 mph N/A   Overcast
9:16 AM 40.1 °F 29.5 °F 33.1 °F 76% 29.65 in 10.0 mi WNW 25.3 mph 32.2 mph N/A   Overcast
9:35 AM 40.1 °F 29.0 °F 32.2 °F 73% 29.66 in 10.0 mi WNW 27.6 mph 36.8 mph N/A   Overcast
9:39 AM 40.1 °F 29.2 °F 32.2 °F 73% 29.65 in 10.0 mi WNW 26.5 mph 36.8 mph N/A   Overcast
9:57 AM 40.1 °F 29.2 °F 32.0 °F 73% 29.66 in 10.0 mi WNW 26.5 mph 39.1 mph N/A   Overcast
10:15 AM 40.6 °F 30.4 °F 32.0 °F 71% 29.66 in 10.0 mi WNW 24.2 mph 32.2 mph N/A   Overcast
10:35 AM 41.9 °F 32.1 °F 32.9 °F 70% 29.67 in 10.0 mi West 24.2 mph 32.2 mph N/A   Overcast
10:36 AM 41.9 °F 32.1 °F 32.9 °F 70% 29.67 in 10.0 mi West 24.2 mph 33.4 mph N/A   Overcast
10:55 AM 41.9 °F 32.3 °F 32.4 °F 69% 29.67 in 10.0 mi West 23.0 mph 33.4 mph N/A   Overcast
11:19 AM 43.0 °F 33.1 °F 32.4 °F 66% 29.67 in 10.0 mi West 26.5 mph 36.8 mph N/A   Overcast
11:36 AM - - - N/A% - - North - - N/A   Unknown
11:55 AM - - - N/A% - - North - - N/A   Unknown
12:16 PM 47.1 °F - 32.7 °F 57% 29.67 in 10.0 mi WNW 27.6 mph 38.0 mph N/A   Overcast
12:40 PM 49.1 °F - 31.8 °F 51% 29.67 in 10.0 mi WNW 24.2 mph 34.5 mph N/A   Scattered Clouds
12:57 PM 49.1 °F - 30.4 °F 49% 29.67 in 7.0 mi WNW 26.5 mph 40.3 mph N/A   Scattered Clouds
1:15 PM 49.1 °F - 31.1 °F 50% 29.67 in 7.0 mi WNW 25.3 mph 39.1 mph N/A   Clear
1:35 PM 50.0 °F - 30.4 °F 47% 29.68 in 10.0 mi WNW 31.1 mph 40.3 mph N/A   Clear
1:36 PM 49.8 °F - 30.2 °F 47% 29.68 in 10.0 mi WNW 28.8 mph 40.3 mph N/A   Clear
1:55 PM 49.5 °F - 30.2 °F 48% 29.68 in 10.0 mi WNW 29.9 mph 42.6 mph N/A   Clear
1:56 PM 49.5 °F - 30.2 °F 48% 29.68 in 7.0 mi WNW 28.8 mph 41.4 mph N/A   Clear
2:18 PM 49.8 °F - 29.1 °F 45% 29.68 in 7.0 mi WNW 33.4 mph 43.7 mph N/A   Clear
2:37 PM 50.0 °F - 29.1 °F 45% 29.69 in 10.0 mi WNW 28.8 mph 43.7 mph N/A   Clear
2:56 PM 50.0 °F - 29.8 °F 46% 29.69 in 10.0 mi West 26.5 mph 41.4 mph N/A   Clear
3:15 PM 50.0 °F - 29.8 °F 46% 29.70 in 7.0 mi West 31.1 mph 39.1 mph N/A   Clear
3:16 PM 49.8 °F - 30.0 °F 47% 29.69 in 7.0 mi West 28.8 mph 39.1 mph N/A   Clear
3:35 PM 50.0 °F - 29.7 °F 46% 29.70 in 7.0 mi West 27.6 mph 39.1 mph N/A   Clear
3:57 PM 49.8 °F - 29.8 °F 46% 29.70 in 10.0 mi West 24.2 mph 35.7 mph N/A   Clear
4:15 PM 49.3 °F - 29.8 °F 47% 29.71 in 7.0 mi West 27.6 mph 34.5 mph N/A   Clear
4:35 PM 49.3 °F - 31.6 °F 51% 29.72 in 7.0 mi West 19.6 mph 32.2 mph N/A   Clear
4:36 PM 49.3 °F - 31.6 °F 51% 29.72 in 7.0 mi West 19.6 mph 31.1 mph N/A   Clear
4:55 PM 49.1 °F - 31.5 °F 51% 29.72 in 7.0 mi West 23.0 mph 31.1 mph N/A   Clear
5:19 PM 48.2 °F - 30.9 °F 51% 29.73 in 7.0 mi West 21.9 mph 32.2 mph N/A   Clear
5:36 PM 47.3 °F - 30.6 °F 52% 29.74 in 7.0 mi West 24.2 mph 29.9 mph N/A   Clear
5:56 PM 46.4 °F 39.5 °F 30.6 °F 54% 29.74 in 7.0 mi West 17.3 mph 26.5 mph N/A   Clear
6:15 PM 44.8 °F 38.0 °F 31.5 °F 60% 29.74 in 7.0 mi West 15.0 mph 21.9 mph N/A   Clear
6:16 PM 44.8 °F 37.7 °F 31.6 °F 60% 29.74 in 10.0 mi West 16.1 mph 21.9 mph N/A   Clear
6:35 PM 43.7 °F 37.3 °F 32.0 °F 63% 29.75 in 7.0 mi West 12.7 mph - N/A   Clear
6:39 PM 43.5 °F 37.1 °F 32.0 °F 64% 29.75 in 7.0 mi West 12.7 mph - N/A   Clear
6:57 PM 42.4 °F 36.1 °F 32.0 °F 67% 29.76 in 7.0 mi West 11.5 mph - N/A   Clear
7:16 PM 40.5 °F 35.1 °F 32.0 °F 72% 29.76 in 7.0 mi West 8.1 mph - N/A   Clear
7:35 PM 40.1 °F 33.6 °F 32.0 °F 73% 29.77 in 7.0 mi West 10.4 mph - N/A   Clear
7:36 PM 40.1 °F 33.6 °F 32.0 °F 73% 29.77 in 7.0 mi West 10.4 mph - N/A   Clear
7:55 PM 40.3 °F 33.9 °F 32.0 °F 72% 29.78 in 7.0 mi West 10.4 mph - N/A   Clear
7:56 PM 40.3 °F 33.4 °F 32.0 °F 72% 29.78 in 7.0 mi West 11.5 mph - N/A   Clear
8:19 PM 40.1 °F 34.1 °F 32.0 °F 73% 29.78 in 7.0 mi West 9.2 mph - N/A   Clear
8:36 PM 37.2 °F 31.9 °F 31.5 °F 80% 29.78 in 7.0 mi West 6.9 mph - N/A   Clear
8:55 PM 36.5 °F 30.3 °F 31.6 °F 83% 29.78 in 10.0 mi West 8.1 mph - N/A   Clear
8:56 PM 36.5 °F 30.3 °F 31.6 °F 83% 29.78 in 10.0 mi West 8.1 mph - N/A   Clear
9:15 PM 36.5 °F 30.3 °F 31.5 °F 82% 29.78 in 7.0 mi West 8.1 mph - N/A   Clear
9:35 PM 35.4 °F 29.0 °F 31.1 °F 84% 29.78 in 7.0 mi West 8.1 mph - N/A   Clear
9:39 PM 35.1 °F 29.3 °F 31.1 °F 85% 29.78 in 7.0 mi West 6.9 mph - N/A   Clear
10:15 PM 34.0 °F 27.2 °F 30.9 °F 89% 29.79 in 10.0 mi West 8.1 mph - N/A   Clear
10:35 PM 33.8 °F 27.0 °F 30.7 °F 89% 29.80 in 7.0 mi WSW 8.1 mph - N/A   Clear
10:36 PM 33.8 °F 26.4 °F 30.9 °F 89% 29.80 in 7.0 mi WSW 9.2 mph - N/A   Clear
10:55 PM 33.3 °F 27.9 °F 30.4 °F 89% 29.79 in 10.0 mi West 5.8 mph - N/A   Clear
11:18 PM 32.2 °F 26.7 °F 29.8 °F 91% 29.78 in 7.0 mi West 5.8 mph - N/A   Clear
11:36 PM 32.0 °F 24.8 °F 29.7 °F 91% 29.78 in 7.0 mi West 8.1 mph - N/A   Clear
11:55 PM 31.8 °F 26.2 °F 29.3 °F 90% 29.78 in 7.0 mi WSW 5.8 mph - N/A   Clear
11:56 PM 31.8 °F 26.2 °F 29.3 °F 90% 29.78 in 7.0 mi WSW 5.8 mph - N/A   Clear